Location: Bucharest
(44.4268°N, 26.1025°E)
Time: 01:11:26
(UTC+03:00)

ESTCUBE 1 - Pass Details

Date: 02 July 2022
Orbit: 646 x 657 km, 97.9° (Epoch: 07 August)

Event Time Altitude Azimuth Distance (km) Brightness Sun altitude
Exits shadow 23:24:33 34° 170° (S) 1,074 ? -17.6°
Maximum altitude 23:26:31 85° 255° (WSW) 656 ? -17.8°
Drops below altitude 10° 23:31:01 10° 346° (NNW) 2,059 ? -18.1°
Sets 23:33:15 0° 347° (NNW) 2,976 ? -18.3°
